View from above orbital plane
|
View from above satellite
|
Ground track
|
The orbit data is extracted from the following two-line orbital elements,
1 00046U 60007B 21107.92216616 .00000031 00000-0 28950-4 0 9999
2 00046 66.6895 303.7867 0217591 264.4753 93.1503 14.49387102183239
Epoch (UTC): | 17 April 2021 22:07:55 |
Eccentricity: | 0.0217591 |
inclination: | 66.6895° |
perigee height: | 573 km |
apogee height: | 882 km |
right ascension of ascending node: | 303.7867° |
argument of perigee: | 264.4753° |
revolutions per day: | 14.49387102 |
mean anomaly at epoch: | 93.1503° |
orbit number at epoch: | 18323 |
The dashed part of the orbit path shows where the satellite is in the earth's shadow,
|
|